XML Sitemap

This is a XML Sitemap which is supposed to be processed by search engines which follow the XML Sitemap standard like Ask.com, Bing, Google and Yahoo.
It was generated using the WordPress content management system and the Google Sitemap Generator Plugin by Arne Brachhold.
You can find more information about XML sitemaps on sitemaps.org and Google's list of sitemap programs.

URLPriorityChange frequencyLast modified (GMT)
https://100frames.com/34-calendar-for-february-and-march-2019/50%Daily2019-03-07 22:39
https://100frames.com/33-epcot-crowd-calendar/50%Daily2019-03-07 22:37
https://100frames.com/35-calendar-australia-printable/50%Daily2019-03-07 22:36
https://100frames.com/30-guess-the-due-date-calendar-printable/50%Daily2019-03-07 22:34
https://100frames.com/32-sacramento-state-calendar/50%Daily2019-03-07 22:32
https://100frames.com/34-icsd-calendar-2019-2020/50%Daily2019-03-07 22:30
https://100frames.com/31-3-week-calendar-free-printable/50%Daily2019-03-07 22:30
https://100frames.com/31-505-design-printable-calendar/50%Daily2019-03-07 22:28
https://100frames.com/35-january-2019-printable-calendar-imom/50%Daily2019-03-07 22:25
https://100frames.com/32-august-15-calendar/50%Daily2019-03-07 22:25
https://100frames.com/30-february-22-holiday/50%Daily2019-03-07 22:23
https://100frames.com/35-month-of-april-calendar-printable/50%Daily2019-03-07 22:21
https://100frames.com/26-calendar-template-for-december-2019/50%Daily2019-03-07 22:20
https://100frames.com/32-free-printable-family-organizer-calendar/50%Daily2019-03-07 22:19
https://100frames.com/30-august-september-october-november-december-calendar-printable/50%Daily2019-03-07 22:17
https://100frames.com/31-printable-january-2019-calendar-with-lines/50%Daily2019-03-07 22:15
https://100frames.com/35-volusia-school-calendar/50%Daily2019-03-07 22:14
https://100frames.com/33-august-2019-weekly-calendar/50%Daily2019-03-07 22:10
https://100frames.com/30-printable-weekly-calendar-with-todo-list/50%Daily2019-03-07 22:10
https://100frames.com/35-printable-calendars-with-space-to-write/50%Daily2019-03-07 22:07
https://100frames.com/35-august-printable-calendar/50%Daily2019-03-07 22:05
https://100frames.com/31-september-2019-calendar-with-holidays-uk/50%Daily2019-03-07 22:04
https://100frames.com/20-www-starfall-com-calendar/50%Daily2019-03-07 22:01
https://100frames.com/32-write-on-calendar/50%Daily2019-03-07 22:01
https://100frames.com/35-big-calendar-2019/50%Daily2019-03-07 22:01
https://100frames.com/33-free-printable-calendar-word/50%Daily2019-03-07 21:58
https://100frames.com/33-printable-mini-calendar-for-dolls/50%Daily2019-03-07 21:55
https://100frames.com/32-printable-calendar-for-2019-australia/50%Daily2019-03-07 21:55
https://100frames.com/31-august-through-december-2019-calendar/50%Daily2019-03-07 21:52
https://100frames.com/32-2007-printable-calendar/50%Daily2019-03-07 21:50
https://100frames.com/35-multicultural-calendar-2019-printable/50%Daily2019-03-07 21:50
https://100frames.com/32-small-pocket-calendar-2019-printable/50%Daily2019-03-07 21:47
https://100frames.com/34-free-printable-calendar-grids/50%Daily2019-03-07 21:46
https://100frames.com/24-lego-calendar-october-2019-2020/50%Daily2019-03-07 21:44
https://100frames.com/32-november-calendar-2019-printable/50%Daily2019-03-07 21:41
https://100frames.com/35-printable-calendar-2019-cafemom/50%Daily2019-03-07 21:41
https://100frames.com/32-free-printable-2019-word-calendar/50%Daily2019-03-07 21:39
https://100frames.com/34-printable-penny-challenge-calendar/50%Daily2019-03-07 21:37
https://100frames.com/35-printable-academic-calendar/50%Daily2019-03-07 21:35
https://100frames.com/32-ivy-tech-academic-calendar/50%Daily2019-03-07 21:35
https://100frames.com/33-printable-90-day-linear-planning-calendars/50%Daily2019-03-07 21:32
https://100frames.com/34-printable-ledger-calendar/50%Daily2019-03-07 21:30
https://100frames.com/31-pretty-2019-calendar-printable/50%Daily2019-03-07 21:30
https://100frames.com/35-free-printable-planner-calendar-2019/50%Daily2019-03-07 21:28
https://100frames.com/35-month-of-september-calendar-printable/50%Daily2019-03-07 21:25
https://100frames.com/33-meal-planning-calendar/50%Daily2019-03-07 21:25
https://100frames.com/32-february-2019-printable-calendar-holidays/50%Daily2019-03-07 21:23
https://100frames.com/34-byui-master-calendar/50%Daily2019-03-07 21:21
https://100frames.com/31-cute-desk-calendar-2019-printable/50%Daily2019-03-07 21:20
https://100frames.com/33-wedding-countdown-calendar/50%Daily2019-03-07 21:18
https://100frames.com/30-free-printable-blank-monthly-calendar-template/50%Daily2019-03-07 21:16
https://100frames.com/32-free-printable-blank-calendar-grid/50%Daily2019-03-07 21:16
https://100frames.com/31-free-printable-large-number-calendar/50%Daily2019-03-07 21:13
https://100frames.com/19-amazon-lang-calendars/50%Daily2019-03-07 21:10
https://100frames.com/35-1200-calorie-meal-calendar-for-a-month-pdf-printable/50%Daily2019-03-07 21:11
https://100frames.com/30-2019-yearly-calendar-printable-uk/50%Daily2019-03-07 21:08
https://100frames.com/24-free-april-2019-calendar/50%Daily2019-03-07 21:06
https://100frames.com/35-download-calendar-2019-2020/50%Daily2019-03-07 21:06
https://100frames.com/24-january-2019-calendar-to-print/50%Daily2019-03-07 21:03
https://100frames.com/34-june-printable-calendar-win/50%Daily2019-03-07 21:02
https://100frames.com/32-printable-kids-calendars-2019-2020/50%Daily2019-03-07 21:00
https://100frames.com/34-free-weekly-calendar-printable/50%Daily2019-03-07 21:00
https://100frames.com/32-october-month-calendar-printable/50%Daily2019-03-07 20:57
https://100frames.com/33-blank-calendar-printable-pdf/50%Daily2019-03-07 20:56
https://100frames.com/30-november-16-calendar/50%Daily2019-03-07 20:55
https://100frames.com/34-ric-academic-calendar-2019/50%Daily2019-03-07 20:53
https://100frames.com/31-calendar-2019-august-to-december-printable/50%Daily2019-03-07 20:51
https://100frames.com/32-cute-free-printable-calendar-december/50%Daily2019-03-07 20:50
https://100frames.com/34-calendar-month-labels-printable/50%Daily2019-03-07 20:48
https://100frames.com/35-blank-monthly-calendar-december-2019/50%Daily2019-03-07 20:45
https://100frames.com/32-printable-calendar-for-mac-pages/50%Daily2019-03-07 20:45
https://100frames.com/31-free-printable-blank-3-month-calendar/50%Daily2019-03-07 20:43
https://100frames.com/30-free-printable-calendar-word-doc/50%Daily2019-03-07 20:41
https://100frames.com/31-printable-calendar-starts-with-monday/50%Daily2019-03-07 20:40
https://100frames.com/35-august-2019-calendar-blank/50%Daily2019-03-07 20:39
https://100frames.com/17-share-calendar-event-iphone/50%Daily2019-03-07 20:37
https://100frames.com/35-free-printable-blank-april-calendar-2019/50%Daily2019-03-07 20:36
https://100frames.com/35-2009-friday-calendar-printable/50%Daily2019-03-07 20:36
https://100frames.com/31-animal-calendar-2019-printable/50%Daily2019-03-07 20:34
https://100frames.com/30-free-printable-calendar-2019-2-pages-per-month/50%Daily2019-03-07 20:31
https://100frames.com/32-what-day-is-new-years-eve-2019/50%Daily2019-03-07 20:30
https://100frames.com/33-2019-calendar-printable-7/50%Daily2019-03-07 20:28
https://100frames.com/34-printable-hello-kitty-calendar-2019/50%Daily2019-03-07 20:26
https://100frames.com/32-small-desk-calendar-2019-printable/50%Daily2019-03-07 20:25
https://100frames.com/35-2019-monthly-planner-printable/50%Daily2019-03-07 20:24
https://100frames.com/30-june-july-august-calendar/50%Daily2019-03-07 20:22
https://100frames.com/33-free-calendar-may-2019/50%Daily2019-03-07 20:20
https://100frames.com/25-printable-calendar-april-2019/50%Daily2019-03-07 20:19
https://100frames.com/34-december-2019-schedule/50%Daily2019-03-07 20:18
https://100frames.com/31-printable-calendar-july-through-december-2019/50%Daily2019-03-07 20:15
https://100frames.com/34-weekly-calendar-templates-free-printable/50%Daily2019-03-07 20:15
https://100frames.com/33-when-was-veterans-day/50%Daily2019-03-07 20:13
https://100frames.com/31-cuesta-college-calendar/50%Daily2019-03-07 20:10
https://100frames.com/35-free-printable-calendars-two-onpage-2019/50%Daily2019-03-07 20:10
https://100frames.com/34-printable-weekly-calendar-template-2019/50%Daily2019-03-07 20:07
https://100frames.com/32-2019-volenteer-calendar-printable/50%Daily2019-03-07 20:05
https://100frames.com/32-free-printable-calendar-for-january-2019/50%Daily2019-03-07 20:04
https://100frames.com/25-inspirational-calendar-2019-printable/50%Daily2019-03-07 20:02
https://100frames.com/32-printable-february-calendar-2019-with-holidays/50%Daily2019-03-07 20:00
https://100frames.com/33-blank-calendar-template-2019/50%Daily2019-03-07 20:01
https://100frames.com/22-weekly-calendar-printable-full-page/50%Daily2019-03-07 19:58
https://100frames.com/35-pinterest-inspirational-calendars-quotes-printable/50%Daily2019-03-07 19:56
https://100frames.com/31-week-at-a-glance-calendar/50%Daily2019-03-07 19:56
https://100frames.com/30-a-printable-workout-calendar/50%Daily2019-03-07 19:53
https://100frames.com/23-disneyland-crowd-calendar-2019/50%Daily2019-03-07 19:50
https://100frames.com/32-twin-peaks-calendar/50%Daily2019-03-07 19:51
https://100frames.com/33-blank-june-calendar-pdf/50%Daily2019-03-07 19:50
https://100frames.com/30-november-2019-printable-moon-phase-calendar/50%Daily2019-03-07 19:48
https://100frames.com/34-academy-of-music-philadelphia/50%Daily2019-03-07 19:46
https://100frames.com/31-butler-school-of-music-calendar/50%Daily2019-03-07 19:46
https://100frames.com/31-fiesta-2019-calendar/50%Daily2019-03-07 19:44
https://100frames.com/29-free-weekly-calendar/50%Daily2019-03-07 19:41
https://100frames.com/30-calendar-online-printable-free/50%Daily2019-03-07 19:40
https://100frames.com/30-horizontal-printable-calendars/50%Daily2019-03-07 19:39
https://100frames.com/35-walt-disney-world-crowd-calendar-2019/50%Daily2019-03-07 19:37
https://100frames.com/31-hrvatski-kalendar/50%Daily2019-03-07 19:35
https://100frames.com/33-online-calendar-template-2019/50%Daily2019-03-07 19:34
https://100frames.com/32-printable-calendar-of-october-2019/50%Daily2019-03-07 19:32
https://100frames.com/31-december-2019-calendar-printable-with-large-blocks/50%Daily2019-03-07 19:31
https://100frames.com/33-daily-calendar-template/50%Daily2019-03-07 19:30
https://100frames.com/25-printable-2019-april-calendar/50%Daily2019-03-07 19:27
https://100frames.com/32-2106-printable-calendar/50%Daily2019-03-07 19:25
https://100frames.com/32-july-7-2019-calendar/50%Daily2019-03-07 19:25
https://100frames.com/31-may-2019-calendar-template-printable/50%Daily2019-03-07 19:24
https://100frames.com/35-printable-calendar-october-december-2019/50%Daily2019-03-07 19:21
https://100frames.com/33-duquesne-university-calendar/50%Daily2019-03-07 19:21
https://100frames.com/32-dana-point-events-calendar/50%Daily2019-03-07 19:19
https://100frames.com/34-felt-advent-calendar/50%Daily2019-03-07 19:16
https://100frames.com/33-printable-calendar-pages-2019-18-portrait-layout/50%Daily2019-03-07 19:15
https://100frames.com/34-printable-calendar-september-october-2019/50%Daily2019-03-07 19:13
https://100frames.com/33-ivf-cycle-calendar/50%Daily2019-03-07 19:11
https://100frames.com/30-veterans-day-2019-images/50%Daily2019-03-07 19:10
https://100frames.com/32-printable-wedding-calendar/50%Daily2019-03-07 19:09
https://100frames.com/34-printable-blank-calendar-template-july-2019/50%Daily2019-03-07 19:07
https://100frames.com/33-classroom-birthday-calendar-printable/50%Daily2019-03-07 19:05
https://100frames.com/31-2019-small-printable-calendars/50%Daily2019-03-07 19:05
https://100frames.com/34-monthly-calendar-sheets/50%Daily2019-03-07 19:02
https://100frames.com/21-easter-2019-calendar-date/50%Daily2019-03-07 19:00
https://100frames.com/32-printable-appointment-calendar-horizontal/50%Daily2019-03-07 18:59
https://100frames.com/31-countdown-christmas-calendar-printable/50%Daily2019-03-07 18:57
https://100frames.com/31-january-with-snowflakes2019-printable-calendar/50%Daily2019-03-07 18:55
https://100frames.com/31-printable-january-calendar-2019-uk/50%Daily2019-03-07 18:55
https://100frames.com/31-january-blank-calendar-printable/50%Daily2019-03-07 18:53
https://100frames.com/26-printable-calendar-september-2019-to-february-2019/50%Daily2019-03-07 18:51
https://100frames.com/33-social-media-calendar-template/50%Daily2019-03-07 18:50
https://100frames.com/35-calendar-math-printables-first-grade/50%Daily2019-03-07 18:50
https://100frames.com/34-printable-calendar-july-december-2019/50%Daily2019-03-07 18:48
https://100frames.com/34-may-2019-calendar-printable-one-week/50%Daily2019-03-07 18:45